Regional Weather Roundup
Issued by NWS Sioux Falls, SD

Home | Current Version | Previous Version | Graphics & Text | Print | Product List | Glossary Off
Versions: 1 2 3 4 5 6 7 8 9 10 11 12 13 14 15 16 17 18 19 20 21 22 23 24 25 26 27 28 29 30 31 32 33 34 35 36 37 38 39 40 41 42 43 44 45 46 47 48 49 50

000
ASUS43 KFSD 290710
RWRFSD

WEATHER ROUNDUP FOR SE SOUTH DAKOTA/SW MINNESOTA/NW IOWA
NATIONAL WEATHER SERVICE SIOUX FALLS SD
200 AM CDT TUE JUL 29 2014

NOTE: "FAIR" INDICATES FEW OR NO CLOUDS BELOW 12,000 FEET WITH NO
SIGNIFICANT WEATHER AND OR OBSTRUCTIONS TO VISIBILITY.


SDZ038>040-050-052>070-290800-
SOUTHEAST SOUTH DAKOTA

CITY           SKY/WX    TMP DP  RH WIND       PRES   REMARKS
CHAMBERLAIN    CLEAR     52  49  89 CALM      30.24S
HURON          CLEAR     51  49  92 CALM      30.22S
MADISON        FAIR      50  50 100 CALM      30.23F
MITCHELL       CLEAR     56  53  90 CALM      30.23S
SIOUX FALLS    CLEAR     55  53  93 CALM      30.22S
WINNER         FAIR      60  50  69 SE8       30.24F
YANKTON        CLEAR     61  54  77 CALM      30.22S
$$

MNZ071-072-080-081-089-090-097-098-290800-
SOUTHWEST MINNESOTA

CITY           SKY/WX    TMP DP  RH WIND       PRES   REMARKS
FAIRMONT       CLEAR     57  48  72 NW7       30.18F
JACKSON        CLEAR     55  50  82 NW6       30.21S
LUVERNE        CLEAR     54  50  87 CALM      30.22F
MARSHALL       CLEAR     54  48  82 W6        30.19F
MONTEVIDEO     CLEAR     55  54  94 NW6       30.20F
PIPESTONE      CLEAR     54  52  94 CALM      30.22F
REDWOOD FALLS  CLEAR     56  53  90 W7        30.18F
TRACY          CLEAR     58  52  79 W6        30.21F
WINDOM         CLEAR     54  52  94 W3        30.21S
WORTHINGTON    CLEAR     54  48  82 NW5       30.22F
$$

IAZ001>003-012>014-020>022-031-032-NEZ013-014-SDZ071-290800-
NORTHWEST IOWA

CITY           SKY/WX    TMP DP  RH WIND       PRES   REMARKS
CHEROKEE       CLEAR     55  55  99 CALM      30.21S
DENISON        CLEAR     55  55 100 CALM      30.19S
ESTHERVILLE    CLEAR     55  52  89 NW7       30.19F
LE MARS        CLEAR     55  55 100 CALM      30.22S
ORANGE CITY    CLEAR     57  54  88 CALM      30.22S
SHELDON        CLEAR     50  48  93 CALM      30.20F
SIOUX CITY     CLEAR     57  55  93 W3        30.21S
SPENCER        CLEAR     52  49  89 NW3       30.21S
STORM LAKE     CLEAR     55  55 100 N6        30.21F
$$

ABBREVIATIONS USED IN REMARKS
   TC - TEMPERATURE IN CELSIUS
  WCI - WIND CHILL INDEX
   HX - HEAT INDEX
  VSB - VISIBILITY




USA.gov is the U.S. government's official web portal to all federal, state and local government web resources and services.